{"data":{"norad_id":53738,"epoch":"2026-05-25T02:39:57.203136Z","epoch_age_seconds":65373,"freshness":"FRESH","line1":"1 53738U 22107AQ  26145.11107874  .00000560  00000+0  53282-4 0  9999","line2":"2 53738  53.2138 280.8261 0001107  86.2933 273.8186 15.08839759205981","mean_motion":15.08839759,"eccentricity":0.0001107,"inclination_deg":53.2138,"raan_deg":280.8261,"arg_perigee_deg":86.2933,"mean_anomaly_deg":273.8186,"bstar":5.3282e-5,"rev_number":20598,"period_min":95.437569921565,"perigee_km":538.97831616418,"apogee_km":540.50993504539,"semimajor_km":6917.8811256048,"source":"CELESTRAK","updated_at":"2026-05-25T13:38:17.538909Z"}}